[[{"header":{"parameterUnit":"m.s-1","parameterCategory":1,"la1":30.2991,"la2":30.254,"lo1":-89.0895,"lo2":-89.0444,"dy":0.0017,"dx":0.0017,"nx":28,"ny":28,"refTime":"2023-10-20T03:00:00:Z","depth":0,"parameterNumber":2,"parameterNumberName":"U-component_of_WINDS"},"data":[0,0,0,0,0,0,0,0,0,0,0,0,0,0,0,0,0,0,0,0,0,0,0,0,0,0,0,0,0,0,0,0,0,0,0,0,0,0,0,0,0,0,0,0,0,0,0,0,0,0,0,0,0,0,0,0,0,0,3.0068,3.0069,0,3.015,3.0151,3.0152,3.0046,3.0042,3.0039,3.0035,3.0125,3.0131,3.0137,0,0,0,0,0,0,0,0,0,0,0,0,0,2.9828,2.9833,3.0068,3.0069,3.007,3.015,3.0151,3.0152,3.0047,3.0042,3.0038,3.0033,3.0123,3.013,3.0137,0,0,0,0,0,0,0,0,0,0,0,0,0,2.9923,2.9834,3.0068,3.0027,3.0024,3.0149,3.0151,3.0152,3.0048,3.0042,3.0036,3.0031,3.0121,3.0129,3.0138,3.0309,0,0,3.0166,3.017,0,0,0,0,0,0,0,0,2.9918,2.9932,3.0032,3.003,3.0027,3.0082,3.0099,3.0205,3.0049,3.0039,3.0035,3.0028,3.0116,3.0125,3.0153,3.0313,3.0317,3.0167,3.0172,3.0176,3.0178,0,0,0,0,0,0,0,2.9912,2.9928,3.01,3.0034,3.0031,3.0007,3.0014,3.0119,3.0109,3.004,3.0032,3.0043,3.0113,3.0145,3.0154,3.0319,3.0166,3.0174,3.018,3.0183,3.0628,3.0634,0,0,0,0,0,0,2.9909,2.9923,3.0098,3.0103,2.9957,3.0016,3.0024,3.007,3.0108,3.0108,3.0048,3.0038,3.0132,3.0144,3.0157,3.0363,3.0176,3.0184,3.0189,3.0622,3.063,3.0637,0,0,0,0,0,0,2.9904,2.9925,3.0094,3.0011,3.0031,3.0026,3.0079,3.0075,3.0106,3.0114,3.0112,3.0081,3.0128,3.0144,3.0273,3.0365,3.0188,3.0196,3.0614,3.0624,3.0633,3.0774,0,0,0,0,0,0,2.9898,2.9924,2.9987,3.0013,3.0036,3.0207,3.0084,3.0081,3.0121,3.0109,3.0144,3.0145,3.0125,3.026,3.0282,3.0374,3.0203,3.0606,3.0619,3.063,3.0762,3.0788,3.081,0,0,0,0,0,2.9889,3.0024,2.9991,3.0013,3.0114,3.0212,3.0225,3.0198,3.0129,3.0194,3.0199,3.0144,3.035,3.0274,3.0298,3.0394,3.06,3.0615,3.0629,3.0751,3.0783,3.0809,0,0,0,0,0,0,3.0011,3.0027,2.999,3.0137,3.0174,3.0194,3.0275,3.0232,3.0291,3.0277,3.0241,3.0251,3.0388,3.0403,3.0318,3.0563,3.0464,3.0484,3.0549,3.0579,3.0603,3.0598,3.0211,0,0,0,0,0,3.0054,3.013,3.0141,3.027,3.029,3.028,3.0322,3.0297,3.0335,3.0351,3.0365,3.0406,3.048,3.053,3.0598,3.0762,3.0771,3.0841,3.0865,3.0885,3.0903,3.0995,3.1028,3.0684,3.0684,3.0684,0,0,3.0146,3.0164,3.0214,3.0295,3.032,3.0404,3.0294,3.0385,3.0447,3.0365,3.0487,3.05,3.0543,3.0691,3.0757,3.0708,3.1,3.0903,3.0919,3.0927,3.1014,3.1046,3.1075,3.0694,3.0692,3.0691,0,0,3.0355,3.0375,3.0486,3.0514,3.0554,3.0547,3.0574,3.0601,3.0606,3.0728,3.0669,3.0743,3.0871,3.0905,3.094,3.1165,3.1118,3.1188,3.1316,3.1406,3.1433,3.1457,3.1541,3.1572,3.1206,3.1206,3.1207,0,3.0464,3.0584,3.0549,3.0645,3.0684,3.0612,3.0726,3.0756,3.0818,3.0848,3.0791,3.0952,3.0975,3.1133,3.1188,3.1216,3.1249,3.1185,3.1432,3.1455,3.1477,3.1557,3.1589,3.1215,3.1214,3.1213,3.1212,0,3.0719,3.0803,3.0888,3.0949,3.0997,3.1102,3.1085,3.1139,3.1111,3.111,3.1238,3.1264,3.1338,3.1373,3.1346,3.1528,3.1497,3.1436,3.1337,3.1519,3.1594,3.1624,3.1227,3.1224,3.1222,3.1219,0,0,3.1007,3.1047,3.108,3.1108,3.1147,3.1214,3.1317,3.1388,3.1437,3.1481,3.157,3.1681,3.1626,3.1665,3.1642,3.1721,3.1903,3.1651,3.1652,3.1701,3.2109,3.2157,3.2193,3.1871,3.1876,3.1881,3.2107,0,3.122,3.1396,3.1369,3.1541,3.1621,3.1554,3.1645,3.1681,3.1684,3.1754,3.1757,3.1838,3.1758,3.1782,3.1856,3.1865,3.1985,3.1847,3.1957,3.1961,3.1951,3.2231,3.2281,3.2493,3.2136,3.214,3.2144,0,3.1491,3.1546,3.1726,3.1756,3.1788,3.187,3.1935,3.2001,3.2042,3.2039,3.2084,3.2047,3.2154,3.2051,3.22,3.2107,3.215,3.2161,3.2169,3.2181,3.2066,3.2254,3.256,3.2593,3.2189,3.2185,3.2182,0,3.1689,3.1807,3.1931,3.1956,3.1993,3.2053,3.2072,3.2106,3.2152,3.2209,3.224,3.2309,3.2348,3.2404,3.2389,3.2314,3.2544,3.2437,3.2547,3.2548,3.2601,3.2598,3.2922,3.2623,3.2622,3.2622,3.2621,0,3.1931,3.2044,3.202,3.2097,3.2224,3.2192,3.2319,3.233,3.2362,3.2442,3.2388,3.2465,3.2438,3.2515,3.2503,3.2631,3.2648,3.2651,3.2648,3.2658,3.2659,3.2688,3.2675,3.263,3.2628,3.2627,3.2625,0,3.2174,3.2161,3.2293,3.2317,3.2326,3.2419,3.2441,3.2515,3.2514,3.2616,3.2638,3.2638,3.2725,3.2714,3.2812,3.2804,3.2964,3.2941,3.2951,3.2947,3.3058,3.305,3.3415,3.3463,3.313,3.3133,3.3136,0,3.2331,3.2417,3.245,3.2499,3.2522,3.2601,3.2648,3.262,3.2672,3.2726,3.2795,3.2876,3.2941,3.3084,3.3094,3.317,3.3151,3.3273,3.3162,3.3171,3.3157,3.3154,3.3164,3.3297,3.33,3.3303,3.3306,0,3.2612,3.2602,3.2669,3.2737,3.2793,3.2845,3.2892,3.2936,3.2913,3.2974,3.3062,3.3112,3.3212,3.3296,3.3367,3.3389,3.3347,3.334,3.3371,3.3384,3.3388,3.3391,3.3015,3.3333,3.333,3.3328,3.3327,3.3326,3.2819,3.2894,3.293,3.3008,3.304,3.3086,3.3157,3.3165,3.3237,3.3315,3.3295,3.3396,3.3438,3.3529,3.3559,3.364,3.3595,3.3638,3.3649,3.3662,3.3677,3.3372,3.3652,3.3651,3.3651,3.365,3.3649,0,3.3101,3.3121,3.3193,3.326,3.3323,3.3273,3.3323,3.338,3.3469,3.351,3.3575,3.3678,3.376,3.3776,3.3855,3.3917,3.39,3.3939,3.3936,3.3943,3.371,3.3677,3.3952,3.3952,3.3952,3.3952,3.3952,3.3952,3.3255,3.338,3.3375,3.3517,3.3537,3.3634,3.3667,3.371,3.3743,3.3861,3.3928,3.3937,3.397,3.4051,3.4125,3.4128,3.4162,3.4211,3.4207,3.3989,3.3959,3.393,3.39,3.4217,3.4217,3.4433,3.4436,3.4437]},{"header":{"parameterUnit":"m.s-1","parameterCategory":1,"la1":30.2991,"la2":30.254,"lo1":-89.0895,"lo2":-89.0444,"dy":0.0017,"dx":0.0017,"nx":28,"ny":28,"refTime":"2023-10-20T03:00:00:Z","depth":0,"parameterNumber":3,"parameterNumberName":"V-component_of_WINDS"},"data":[0,0,0,0,0,0,0,0,0,0,0,0,0,0,0,0,0,0,0,0,0,0,0,0,0,0,0,0,0,0,0,0,0,0,0,0,0,0,0,0,0,0,0,0,0,0,0,0,0,0,0,0,0,0,0,0,0,0,-1.9915,-1.9916,0,-1.9973,-1.9973,-1.9974,-1.9995,-1.9995,-1.9995,-1.9995,-2.0051,-2.0052,-2.0054,0,0,0,0,0,0,0,0,0,0,0,0,0,-1.9821,-1.9823,-1.9915,-1.9916,-1.9917,-1.9973,-1.9973,-1.9974,-1.9995,-1.9995,-1.9995,-1.9995,-2.005,-2.0052,-2.0054,0,0,0,0,0,0,0,0,0,0,0,0,0,-1.9869,-1.9824,-1.9915,-1.9934,-1.9936,-1.9972,-1.9973,-1.9974,-1.9995,-1.9995,-1.9995,-1.9994,-2.005,-2.0052,-2.0054,-2.0075,0,0,-2.0062,-2.0063,0,0,0,0,0,0,0,0,-1.9866,-1.9872,-1.993,-1.9933,-1.9935,-1.9977,-1.9961,-2.0008,-1.9995,-1.9973,-1.9995,-1.9994,-2.0026,-2.0031,-2.0042,-2.0078,-2.008,-2.0062,-2.0064,-2.0065,-2.0066,0,0,0,0,0,0,0,-1.9863,-1.987,-1.9938,-1.9931,-1.9934,-1.9939,-1.9945,-1.997,-2.0,-1.9975,-1.9976,-1.9983,-2.0027,-2.0039,-2.0043,-2.0081,-2.0062,-2.0064,-2.0066,-2.0067,-2.0137,-2.0138,0,0,0,0,0,0,-1.9857,-1.9867,-1.9936,-1.994,-1.9899,-1.9941,-1.9948,-1.9964,-2.0,-2.0005,-1.9983,-1.9984,-2.0035,-2.004,-2.0045,-2.0072,-2.0065,-2.0067,-2.0069,-2.0137,-2.0137,-2.0138,0,0,0,0,0,0,-1.9855,-1.9863,-1.9934,-1.9904,-1.9913,-1.9943,-1.996,-1.9965,-1.9977,-2.0006,-2.0012,-1.999,-2.0035,-2.0042,-2.0068,-2.0074,-2.0068,-2.0071,-2.0136,-2.0137,-2.0138,-2.0126,0,0,0,0,0,0,-1.9852,-1.9862,-1.987,-1.9904,-1.9915,-1.9956,-1.996,-1.9966,-1.9981,-1.9983,-2.0014,-2.0019,-2.0036,-2.0064,-2.007,-2.0078,-2.0073,-2.0136,-2.0137,-2.0137,-2.0126,-2.0126,-2.0126,0,0,0,0,0,-1.9848,-1.9864,-1.9871,-1.9879,-1.9926,-1.9956,-1.9962,-1.9982,-1.9982,-1.9991,-2.001,-2.0018,-2.0073,-2.0067,-2.0074,-2.0082,-2.0136,-2.0137,-2.0137,-2.0126,-2.0126,-2.0126,0,0,0,0,0,0,-1.983,-1.9869,-1.9877,-1.9904,-1.9927,-1.996,-1.9971,-1.9981,-2.0004,-2.0004,-2.0026,-2.0033,-2.0057,-2.0072,-2.0065,-2.0104,-2.0105,-2.0107,-2.0093,-2.0094,-2.0094,-2.009,-2.0075,0,0,0,0,0,-1.9829,-1.9851,-1.9884,-1.9904,-1.9916,-1.9941,-1.9955,-1.9968,-1.9992,-2.0002,-2.0023,-2.0045,-2.0067,-2.0082,-2.0104,-2.0128,-2.0135,-2.0137,-2.0138,-2.0138,-2.0139,-2.0153,-2.0155,-2.0141,-2.0141,-2.014,0,0,-1.9827,-1.9851,-1.9864,-1.9901,-1.9921,-1.9942,-1.9949,-1.9972,-1.9988,-2.0005,-2.0031,-2.0047,-2.0074,-2.0099,-2.0111,-2.0112,-2.0145,-2.0139,-2.0138,-2.014,-2.0154,-2.0156,-2.0157,-2.0141,-2.0141,-2.0141,0,0,-1.9835,-1.9856,-1.9875,-1.9895,-1.9924,-1.9941,-1.9946,-1.9978,-1.999,-2.0017,-2.003,-2.0049,-2.0087,-2.0105,-2.012,-2.0135,-2.0144,-2.0142,-2.0142,-2.0156,-2.0157,-2.0158,-2.0163,-2.0165,-2.0143,-2.0143,-2.0143,0,-1.9829,-1.9863,-1.9884,-1.9906,-1.9922,-1.994,-1.996,-1.9977,-2.0012,-2.0022,-2.0023,-2.0071,-2.009,-2.012,-2.0124,-2.0135,-2.0141,-2.0138,-2.0155,-2.0156,-2.0158,-2.0163,-2.0165,-2.0143,-2.0143,-2.0143,-2.0143,0,-1.9854,-1.9877,-1.9889,-1.9923,-1.9941,-1.9961,-1.9985,-2.0,-2.0012,-2.0029,-2.0056,-2.0079,-2.0107,-2.0115,-2.0126,-2.0146,-2.0146,-2.0151,-2.0152,-2.0158,-2.0163,-2.0166,-2.0142,-2.0142,-2.0142,-2.0142,0,0,-1.9851,-1.9897,-1.9901,-1.9917,-1.9951,-1.9969,-1.999,-2.0018,-2.003,-2.0054,-2.0072,-2.0104,-2.0108,-2.0125,-2.0138,-2.015,-2.0161,-2.0153,-2.0154,-2.0153,-2.0185,-2.0181,-2.0183,-2.0167,-2.0167,-2.0168,-2.0182,0,-1.9863,-1.9903,-1.9923,-1.9954,-1.9975,-1.9993,-2.0011,-2.0034,-2.005,-2.007,-2.0088,-2.011,-2.0115,-2.0125,-2.0138,-2.0157,-2.0167,-2.0156,-2.0183,-2.0184,-2.0176,-2.0186,-2.0181,-2.0194,-2.0184,-2.0185,-2.0185,0,-1.9882,-1.9907,-1.994,-1.9972,-1.9981,-1.9998,-2.0025,-2.0044,-2.007,-2.0081,-2.0099,-2.0113,-2.0135,-2.0135,-2.0166,-2.0158,-2.0171,-2.0182,-2.0183,-2.0185,-2.0185,-2.0188,-2.0199,-2.02,-2.0189,-2.0188,-2.0188,0,-1.9877,-1.9918,-1.9943,-1.9956,-1.9994,-2.0005,-2.0021,-2.0047,-2.0062,-2.0085,-2.0096,-2.0121,-2.0135,-2.0154,-2.0173,-2.0171,-2.0203,-2.0204,-2.0212,-2.0211,-2.0217,-2.0217,-2.0229,-2.0226,-2.0226,-2.0226,-2.0226,0,-1.9888,-1.9907,-1.9941,-1.9956,-1.9979,-2.0002,-2.0023,-2.004,-2.0063,-2.0082,-2.0098,-2.0115,-2.014,-2.016,-2.0176,-2.0199,-2.0205,-2.0214,-2.0218,-2.0213,-2.0211,-2.0221,-2.022,-2.0226,-2.0226,-2.0226,-2.0226,0,-1.9885,-1.9908,-1.9937,-1.9971,-1.998,-1.9995,-2.0023,-2.0039,-2.0056,-2.008,-2.0087,-2.0114,-2.0138,-2.016,-2.0192,-2.0202,-2.0226,-2.0231,-2.0218,-2.022,-2.0226,-2.0225,-2.0245,-2.0249,-2.0243,-2.0243,-2.0243,0,-1.9891,-1.9906,-1.9942,-1.9956,-1.9972,-1.9995,-2.0011,-2.0034,-2.005,-2.0081,-2.0092,-2.0118,-2.014,-2.0178,-2.02,-2.0225,-2.0231,-2.0236,-2.0234,-2.0228,-2.023,-2.0229,-2.0231,-2.0235,-2.0235,-2.0235,-2.0235,0,-1.9898,-1.9909,-1.9932,-1.9959,-1.9978,-2.0001,-2.0023,-2.0034,-2.0061,-2.0078,-2.0104,-2.0121,-2.0154,-2.0179,-2.0207,-2.0222,-2.0233,-2.0236,-2.0239,-2.0233,-2.0225,-2.0229,-2.0217,-2.0235,-2.0235,-2.0235,-2.0235,-2.0235,-1.99,-1.9914,-1.9942,-1.9967,-1.9987,-2.0008,-2.0024,-2.0044,-2.0066,-2.0096,-2.0108,-2.0134,-2.0159,-2.0197,-2.0213,-2.0233,-2.0235,-2.024,-2.0241,-2.0242,-2.0241,-2.0222,-2.0238,-2.0238,-2.0238,-2.0239,-2.0239,0,-1.9908,-1.9926,-1.9949,-1.9981,-2.0001,-2.001,-2.0036,-2.0052,-2.0075,-2.0098,-2.0119,-2.0149,-2.0174,-2.0198,-2.0224,-2.0236,-2.0241,-2.0242,-2.0241,-2.0244,-2.0237,-2.0232,-2.0237,-2.0237,-2.0237,-2.0237,-2.0237,-2.0237,-1.9914,-1.994,-1.9954,-1.9989,-2.0008,-2.0034,-2.0048,-2.0067,-2.0086,-2.0118,-2.0139,-2.0156,-2.0179,-2.0207,-2.023,-2.0237,-2.0245,-2.0244,-2.0252,-2.0245,-2.0245,-2.0245,-2.024,-2.0246,-2.0246,-2.0257,-2.0257,-2.0257]}]]